Tyler, TX

7:25 AM CDT on June 26, 2017 (GMT -0500)
Tyler Pounds

Weather History for KTYR - February, 2015

Change the Weather History Date:

Friday, February 13, 2015

  Actual Average Record
Temperature  
Mean Temperature 49 °F 50 °F  
Max Temperature 64 °F 60 °F 82 °F (1962)
Min Temperature 34 °F 40 °F 2 °F (1899)
Degree Days  
Heating Degree Days 16 15  
Month to date heating degree days 183 212  
Since 1 July heating degree days 1565 1690  
Cooling Degree Days 0 0  
Month to date cooling degree days 0 0  
Year to date cooling degree days 0 4  
Moisture  
Dew Point 31 °F    
Average Humidity 51    
Maximum Humidity 71    
Minimum Humidity 30    
Precipitation  
Precipitation 0.00 in 0.14 in 2.30 in (1906)
Month to date precipitation 0.25 1.70  
Year to date precipitation 4.36 4.76  
Snow  
Snow 0.00 in - - ()
Month to date snowfall 0.0  
Since 1 July snowfall T  
Snow Depth 0.00 in    
Sea Level Pressure  
Sea Level Pressure 30.29 in    
Wind  
Wind Speed 6 mph (South)    
Max Wind Speed 15 mph    
Max Gust Speed 21 mph    
Visibility 10 miles    
Events      
T = Trace of Precipitation, MM = Missing Value Source: NWS Daily Summary

Daily Weather History Graph

Daily Weather History Graph

Search for Another Location

Airport or City:

Trip Planner

Search our weather history database for the weather conditions in past years. The results will help you decide how hot, cold, wet, or windy it might be!

Date:

Astronomy

Feb. 13, 2015 Rise Set
Actual Time 7:06 AM CST 6:05 PM CST
Civil Twilight 6:41 AM CST 6:30 PM CST
Nautical Twilight 6:12 AM CST 6:59 PM CST
Astronomical Twilight 5:43 AM CST 7:28 PM CST
Moon 2:05 AM CST (2/13) 12:53 PM CST (2/13)
Length of Visible Light 11h 49m
Length of Day
10h 59m
Waning Crescent, 34% of the Moon is Illuminated
Feb 13
Waning Crescent
Feb 18
New
Feb 25
First Quarter
Mar 5
Full
Mar 13
Last Quarter

Hourly Weather History & Observations

Time (CST) Temp. Windchill Dew Point Humidity Pressure Visibility Wind Dir Wind Speed Gust Speed Precip Events Conditions
12:53 AM 39.9 °F - 26.1 °F 58% 30.36 in 10.0 mi Calm Calm - N/A   Clear
1:53 AM 39.0 °F - 27.0 °F 62% 30.36 in 10.0 mi Calm Calm - N/A   Clear
2:53 AM 36.0 °F 33.3 °F 27.0 °F 70% 30.35 in 10.0 mi ENE 3.5 mph - N/A   Clear
3:53 AM 37.0 °F 34.5 °F 26.1 °F 65% 30.34 in 10.0 mi East 3.5 mph - N/A   Clear
4:53 AM 37.0 °F 33.3 °F 25.0 °F 62% 30.35 in 10.0 mi East 4.6 mph - N/A   Clear
5:53 AM 36.0 °F 31.1 °F 26.1 °F 67% 30.35 in 10.0 mi ESE 5.8 mph - N/A   Clear
6:53 AM 35.1 °F 28.6 °F 26.1 °F 70% 30.35 in 10.0 mi SE 8.1 mph - N/A   Clear
7:53 AM 37.0 °F 31.0 °F 26.1 °F 65% 30.36 in 10.0 mi SSE 8.1 mph - N/A   Clear
8:53 AM 42.1 °F 35.7 °F 25.0 °F 51% 30.35 in 10.0 mi South 11.5 mph - N/A   Clear
9:53 AM 46.0 °F 41.4 °F 26.1 °F 46% 30.36 in 10.0 mi SSE 9.2 mph - N/A   Clear
10:53 AM 51.1 °F - 28.0 °F 41% 30.35 in 10.0 mi SSW 10.4 mph - N/A   Clear
11:53 AM 54.0 °F - 28.9 °F 38% 30.33 in 10.0 mi SSW 11.5 mph - N/A   Clear
12:53 PM 57.0 °F - 30.9 °F 37% 30.29 in 10.0 mi SSW 6.9 mph - N/A   Clear
1:53 PM 59.0 °F - 30.0 °F 33% 30.25 in 10.0 mi North - - N/A   Clear
2:53 PM 63.0 °F - 30.9 °F 30% 30.23 in 10.0 mi WSW 5.8 mph - N/A   Clear
3:53 PM 64.0 °F - 32.0 °F 30% 30.19 in 10.0 mi SSW 10.4 mph - N/A   Clear
4:53 PM 63.0 °F - 34.0 °F 34% 30.19 in 10.0 mi SSW 6.9 mph - N/A   Clear
5:53 PM 59.0 °F - 36.0 °F 42% 30.19 in 6.0 mi SSW 6.9 mph - N/A   Haze
6:53 PM 55.9 °F - 37.0 °F 49% 30.22 in 7.0 mi Calm Calm - N/A   Clear
7:53 PM 53.1 °F - 37.0 °F 55% 30.22 in 8.0 mi SSW 4.6 mph - N/A   Clear
8:53 PM 46.9 °F - 37.0 °F 68% 30.23 in 7.0 mi South 4.6 mph - N/A   Clear
9:53 PM 46.0 °F 43.1 °F 37.0 °F 71% 30.23 in 9.0 mi South 5.8 mph - N/A   Clear
10:53 PM 46.0 °F 42.5 °F 37.0 °F 71% 30.23 in 10.0 mi South 6.9 mph - N/A   Clear
11:53 PM 46.0 °F 43.9 °F 37.0 °F 71% 30.23 in 10.0 mi SSW 4.6 mph - N/A   Clear